owner,sensor,date,latitude,longitude,vertical_datum,sea_water_temperature,qcFlag 
ENP,ioos.station.NOAA.NDBC:BDVF1:1,2016-05-01T00:00:00Z,25.4780,-80.9890,1.0,28.99,2 
ENP,ioos.station.NOAA.NDBC:BDVF1:1,2016-05-01T01:00:00Z,25.4780,-80.9890,1.0,28.82,2 
ENP,ioos.station.NOAA.NDBC:BDVF1:1,2016-05-01T04:00:00Z,25.4780,-80.9890,1.0,28.2,2 
ENP,ioos.station.NOAA.NDBC:BDVF1:1,2016-05-01T05:00:00Z,25.4780,-80.9890,1.0,28.11,2 
ENP,ioos.station.NOAA.NDBC:BDVF1:1,2016-05-01T08:00:00Z,25.4780,-80.9890,1.0,27.91,2 
ENP,ioos.station.NOAA.NDBC:BDVF1:1,2016-05-01T09:00:00Z,25.4780,-80.9890,1.0,27.84,2 
ENP,ioos.station.NOAA.NDBC:BDVF1:1,2016-05-01T11:00:00Z,25.4780,-80.9890,1.0,27.76,2 
ENP,ioos.station.NOAA.NDBC:BDVF1:1,2016-05-01T12:00:00Z,25.4780,-80.9890,1.0,27.7,2 
ENP,ioos.station.NOAA.NDBC:BDVF1:1,2016-05-01T13:00:00Z,25.4780,-80.9890,1.0,27.63,2 
ENP,ioos.station.NOAA.NDBC:BDVF1:1,2016-05-01T14:00:00Z,25.4780,-80.9890,1.0,27.47,2 
ENP,ioos.station.NOAA.NDBC:BDVF1:1,2016-05-01T15:00:00Z,25.4780,-80.9890,1.0,27.5,2 
ENP,ioos.station.NOAA.NDBC:BDVF1:1,2016-05-01T16:00:00Z,25.4780,-80.9890,1.0,27.68,2 
ENP,ioos.station.NOAA.NDBC:BDVF1:1,2016-05-01T17:00:00Z,25.4780,-80.9890,1.0,27.83,2 
ENP,ioos.station.NOAA.NDBC:BDVF1:1,2016-05-01T18:00:00Z,25.4780,-80.9890,1.0,27.92,2 
ENP,ioos.station.NOAA.NDBC:BDVF1:1,2016-05-01T19:00:00Z,25.4780,-80.9890,1.0,28.02,2 
ENP,ioos.station.NOAA.NDBC:BDVF1:1,2016-05-01T20:00:00Z,25.4780,-80.9890,1.0,28.14,2 
ENP,ioos.station.NOAA.NDBC:BDVF1:1,2016-05-01T21:00:00Z,25.4780,-80.9890,1.0,28.4,2 
ENP,ioos.station.NOAA.NDBC:BDVF1:1,2016-05-01T22:00:00Z,25.4780,-80.9890,1.0,28.72,2 
ENP,ioos.station.NOAA.NDBC:BDVF1:1,2016-05-01T23:00:00Z,25.4780,-80.9890,1.0,28.93,2 
ENP,ioos.station.NOAA.NDBC:BDVF1:1,2016-05-02T00:00:00Z,25.4780,-80.9890,1.0,28.98,2 
ENP,ioos.station.NOAA.NDBC:BDVF1:1,2016-05-02T01:00:00Z,25.4780,-80.9890,1.0,28.88,2 
ENP,ioos.station.NOAA.NDBC:BDVF1:1,2016-05-02T02:00:00Z,25.4780,-80.9890,1.0,28.7,2 
ENP,ioos.station.NOAA.NDBC:BDVF1:1,2016-05-02T04:00:00Z,25.4780,-80.9890,1.0,28.49,2 
ENP,ioos.station.NOAA.NDBC:BDVF1:1,2016-05-02T05:00:00Z,25.4780,-80.9890,1.0,28.32,2 
ENP,ioos.station.NOAA.NDBC:BDVF1:1,2016-05-02T07:00:00Z,25.4780,-80.9890,1.0,28.15,2 
ENP,ioos.station.NOAA.NDBC:BDVF1:1,2016-05-02T08:00:00Z,25.4780,-80.9890,1.0,28.04,2 
ENP,ioos.station.NOAA.NDBC:BDVF1:1,2016-05-02T09:00:00Z,25.4780,-80.9890,1.0,27.91,2 
ENP,ioos.station.NOAA.NDBC:BDVF1:1,2016-05-02T11:00:00Z,25.4780,-80.9890,1.0,27.86,2 
ENP,ioos.station.NOAA.NDBC:BDVF1:1,2016-05-02T12:00:00Z,25.4780,-80.9890,1.0,27.81,2 
ENP,ioos.station.NOAA.NDBC:BDVF1:1,2016-05-02T13:00:00Z,25.4780,-80.9890,1.0,27.71,2 
ENP,ioos.station.NOAA.NDBC:BDVF1:1,2016-05-02T15:00:00Z,25.4780,-80.9890,1.0,27.64,2 
ENP,ioos.station.NOAA.NDBC:BDVF1:1,2016-05-02T16:00:00Z,25.4780,-80.9890,1.0,27.72,2 
ENP,ioos.station.NOAA.NDBC:BDVF1:1,2016-05-02T17:00:00Z,25.4780,-80.9890,1.0,27.9,2 
ENP,ioos.station.NOAA.NDBC:BDVF1:1,2016-05-02T18:00:00Z,25.4780,-80.9890,1.0,28.05,2 
ENP,ioos.station.NOAA.NDBC:BDVF1:1,2016-05-02T19:00:00Z,25.4780,-80.9890,1.0,28.2,2 
ENP,ioos.station.NOAA.NDBC:BDVF1:1,2016-05-02T20:00:00Z,25.4780,-80.9890,1.0,28.5,2 
ENP,ioos.station.NOAA.NDBC:BDVF1:1,2016-05-02T21:00:00Z,25.4780,-80.9890,1.0,28.7,2 
ENP,ioos.station.NOAA.NDBC:BDVF1:1,2016-05-02T22:00:00Z,25.4780,-80.9890,1.0,28.89,2 
ENP,ioos.station.NOAA.NDBC:BDVF1:1,2016-05-02T23:00:00Z,25.4780,-80.9890,1.0,28.94,2 
ENP,ioos.station.NOAA.NDBC:BDVF1:1,2016-05-03T00:00:00Z,25.4780,-80.9890,1.0,28.98,2 
ENP,ioos.station.NOAA.NDBC:BDVF1:1,2016-05-03T01:00:00Z,25.4780,-80.9890,1.0,29.13,2 
ENP,ioos.station.NOAA.NDBC:BDVF1:1,2016-05-03T02:00:00Z,25.4780,-80.9890,1.0,29.23,2 
ENP,ioos.station.NOAA.NDBC:BDVF1:1,2016-05-03T04:00:00Z,25.4780,-80.9890,1.0,28.89,2 
ENP,ioos.station.NOAA.NDBC:BDVF1:1,2016-05-03T05:00:00Z,25.4780,-80.9890,1.0,28.81,2 
ENP,ioos.station.NOAA.NDBC:BDVF1:1,2016-05-03T07:00:00Z,25.4780,-80.9890,1.0,28.54,2 
ENP,ioos.station.NOAA.NDBC:BDVF1:1,2016-05-03T08:00:00Z,25.4780,-80.9890,1.0,28.53,2 
ENP,ioos.station.NOAA.NDBC:BDVF1:1,2016-05-03T09:00:00Z,25.4780,-80.9890,1.0,28.45,2 
ENP,ioos.station.NOAA.NDBC:BDVF1:1,2016-05-03T11:00:00Z,25.4780,-80.9890,1.0,28.29,2 
ENP,ioos.station.NOAA.NDBC:BDVF1:1,2016-05-03T12:00:00Z,25.4780,-80.9890,1.0,28.22,2 
ENP,ioos.station.NOAA.NDBC:BDVF1:1,2016-05-03T13:00:00Z,25.4780,-80.9890,1.0,28.21,2 
ENP,ioos.station.NOAA.NDBC:BDVF1:1,2016-05-03T14:00:00Z,25.4780,-80.9890,1.0,28.22,2 
ENP,ioos.station.NOAA.NDBC:BDVF1:1,2016-05-03T15:00:00Z,25.4780,-80.9890,1.0,28.27,2 
ENP,ioos.station.NOAA.NDBC:BDVF1:1,2016-05-03T16:00:00Z,25.4780,-80.9890,1.0,28.45,2 
ENP,ioos.station.NOAA.NDBC:BDVF1:1,2016-05-03T17:00:00Z,25.4780,-80.9890,1.0,28.51,2 
ENP,ioos.station.NOAA.NDBC:BDVF1:1,2016-05-03T18:00:00Z,25.4780,-80.9890,1.0,28.48,2 
ENP,ioos.station.NOAA.NDBC:BDVF1:1,2016-05-03T19:00:00Z,25.4780,-80.9890,1.0,28.54,2 
ENP,ioos.station.NOAA.NDBC:BDVF1:1,2016-05-03T21:00:00Z,25.4780,-80.9890,1.0,28.98,2 
ENP,ioos.station.NOAA.NDBC:BDVF1:1,2016-05-03T22:00:00Z,25.4780,-80.9890,1.0,29.21,2 
ENP,ioos.station.NOAA.NDBC:BDVF1:1,2016-05-03T23:00:00Z,25.4780,-80.9890,1.0,29.28,2 
ENP,ioos.station.NOAA.NDBC:BDVF1:1,2016-05-04T00:00:00Z,25.4780,-80.9890,1.0,29.41,2 
ENP,ioos.station.NOAA.NDBC:BDVF1:1,2016-05-04T01:00:00Z,25.4780,-80.9890,1.0,29.49,2 
ENP,ioos.station.NOAA.NDBC:BDVF1:1,2016-05-04T02:00:00Z,25.4780,-80.9890,1.0,29.44,2 
ENP,ioos.station.NOAA.NDBC:BDVF1:1,2016-05-04T04:00:00Z,25.4780,-80.9890,1.0,29.21,2 
ENP,ioos.station.NOAA.NDBC:BDVF1:1,2016-05-04T05:00:00Z,25.4780,-80.9890,1.0,29.23,2 
ENP,ioos.station.NOAA.NDBC:BDVF1:1,2016-05-04T07:00:00Z,25.4780,-80.9890,1.0,29.16,2 
ENP,ioos.station.NOAA.NDBC:BDVF1:1,2016-05-04T08:00:00Z,25.4780,-80.9890,1.0,29.13,2 
ENP,ioos.station.NOAA.NDBC:BDVF1:1,2016-05-04T09:00:00Z,25.4780,-80.9890,1.0,29.06,2 
ENP,ioos.station.NOAA.NDBC:BDVF1:1,2016-05-04T11:00:00Z,25.4780,-80.9890,1.0,29.05,2 
ENP,ioos.station.NOAA.NDBC:BDVF1:1,2016-05-04T12:00:00Z,25.4780,-80.9890,1.0,29.04,2 
ENP,ioos.station.NOAA.NDBC:BDVF1:1,2016-05-04T13:00:00Z,25.4780,-80.9890,1.0,29.05,2 
ENP,ioos.station.NOAA.NDBC:BDVF1:1,2016-05-04T14:00:00Z,25.4780,-80.9890,1.0,29.06,2 
ENP,ioos.station.NOAA.NDBC:BDVF1:1,2016-05-04T15:00:00Z,25.4780,-80.9890,1.0,29.12,2 
ENP,ioos.station.NOAA.NDBC:BDVF1:1,2016-05-04T16:00:00Z,25.4780,-80.9890,1.0,29.16,2 
ENP,ioos.station.NOAA.NDBC:BDVF1:1,2016-05-04T17:00:00Z,25.4780,-80.9890,1.0,29.14,2 
ENP,ioos.station.NOAA.NDBC:BDVF1:1,2016-05-04T18:00:00Z,25.4780,-80.9890,1.0,29.21,2 
ENP,ioos.station.NOAA.NDBC:BDVF1:1,2016-05-04T19:00:00Z,25.4780,-80.9890,1.0,29.03,2 
ENP,ioos.station.NOAA.NDBC:BDVF1:1,2016-05-04T20:00:00Z,25.4780,-80.9890,1.0,28.72,2 
ENP,ioos.station.NOAA.NDBC:BDVF1:1,2016-05-04T21:00:00Z,25.4780,-80.9890,1.0,28.76,2 
ENP,ioos.station.NOAA.NDBC:BDVF1:1,2016-05-04T22:00:00Z,25.4780,-80.9890,1.0,28.78,2 
ENP,ioos.station.NOAA.NDBC:BDVF1:1,2016-05-04T23:00:00Z,25.4780,-80.9890,1.0,28.74,2 
ENP,ioos.station.NOAA.NDBC:BDVF1:1,2016-05-05T00:00:00Z,25.4780,-80.9890,1.0,28.75,2 
ENP,ioos.station.NOAA.NDBC:BDVF1:1,2016-05-05T01:00:00Z,25.4780,-80.9890,1.0,28.76,2 
ENP,ioos.station.NOAA.NDBC:BDVF1:1,2016-05-05T04:00:00Z,25.4780,-80.9890,1.0,28.42,2 
ENP,ioos.station.NOAA.NDBC:BDVF1:1,2016-05-05T07:00:00Z,25.4780,-80.9890,1.0,28.09,2 
ENP,ioos.station.NOAA.NDBC:BDVF1:1,2016-05-05T08:00:00Z,25.4780,-80.9890,1.0,28.01,2 
ENP,ioos.station.NOAA.NDBC:BDVF1:1,2016-05-05T09:00:00Z,25.4780,-80.9890,1.0,27.93,2 
ENP,ioos.station.NOAA.NDBC:BDVF1:1,2016-05-05T11:00:00Z,25.4780,-80.9890,1.0,27.58,2 
ENP,ioos.station.NOAA.NDBC:BDVF1:1,2016-05-05T12:00:00Z,25.4780,-80.9890,1.0,27.44,2 
ENP,ioos.station.NOAA.NDBC:BDVF1:1,2016-05-05T13:00:00Z,25.4780,-80.9890,1.0,27.43,2 
ENP,ioos.station.NOAA.NDBC:BDVF1:1,2016-05-05T14:00:00Z,25.4780,-80.9890,1.0,27.44,2 
ENP,ioos.station.NOAA.NDBC:BDVF1:1,2016-05-05T15:00:00Z,25.4780,-80.9890,1.0,27.5,2 
ENP,ioos.station.NOAA.NDBC:BDVF1:1,2016-05-05T16:00:00Z,25.4780,-80.9890,1.0,27.67,2 
ENP,ioos.station.NOAA.NDBC:BDVF1:1,2016-05-05T17:00:00Z,25.4780,-80.9890,1.0,27.85,2 
ENP,ioos.station.NOAA.NDBC:BDVF1:1,2016-05-05T18:00:00Z,25.4780,-80.9890,1.0,27.99,2 
ENP,ioos.station.NOAA.NDBC:BDVF1:1,2016-05-05T19:00:00Z,25.4780,-80.9890,1.0,28.13,2 
ENP,ioos.station.NOAA.NDBC:BDVF1:1,2016-05-05T20:00:00Z,25.4780,-80.9890,1.0,28.1,2 
ENP,ioos.station.NOAA.NDBC:BDVF1:1,2016-05-05T21:00:00Z,25.4780,-80.9890,1.0,28.01,2 
ENP,ioos.station.NOAA.NDBC:BDVF1:1,2016-05-05T22:00:00Z,25.4780,-80.9890,1.0,28.05,2 
ENP,ioos.station.NOAA.NDBC:BDVF1:1,2016-05-05T23:00:00Z,25.4780,-80.9890,1.0,28.08,2 
ENP,ioos.station.NOAA.NDBC:BDVF1:1,2016-05-06T00:00:00Z,25.4780,-80.9890,1.0,28.09,2 
ENP,ioos.station.NOAA.NDBC:BDVF1:1,2016-05-06T01:00:00Z,25.4780,-80.9890,1.0,28.11,2 
ENP,ioos.station.NOAA.NDBC:BDVF1:1,2016-05-06T04:00:00Z,25.4780,-80.9890,1.0,28.09,2 
ENP,ioos.station.NOAA.NDBC:BDVF1:1,2016-05-06T05:00:00Z,25.4780,-80.9890,1.0,28.21,2 
ENP,ioos.station.NOAA.NDBC:BDVF1:1,2016-05-06T07:00:00Z,25.4780,-80.9890,1.0,28.14,2 
ENP,ioos.station.NOAA.NDBC:BDVF1:1,2016-05-06T08:00:00Z,25.4780,-80.9890,1.0,27.86,2 
ENP,ioos.station.NOAA.NDBC:BDVF1:1,2016-05-06T09:00:00Z,25.4780,-80.9890,1.0,27.6,2 
ENP,ioos.station.NOAA.NDBC:BDVF1:1,2016-05-06T11:00:00Z,25.4780,-80.9890,1.0,27.07,2 
ENP,ioos.station.NOAA.NDBC:BDVF1:1,2016-05-06T12:00:00Z,25.4780,-80.9890,1.0,27.02,2 
ENP,ioos.station.NOAA.NDBC:BDVF1:1,2016-05-06T13:00:00Z,25.4780,-80.9890,1.0,27.0,2 
ENP,ioos.station.NOAA.NDBC:BDVF1:1,2016-05-06T14:00:00Z,25.4780,-80.9890,1.0,26.99,2 
ENP,ioos.station.NOAA.NDBC:BDVF1:1,2016-05-06T15:00:00Z,25.4780,-80.9890,1.0,27.01,2 
ENP,ioos.station.NOAA.NDBC:BDVF1:1,2016-05-06T16:00:00Z,25.4780,-80.9890,1.0,27.14,2 
ENP,ioos.station.NOAA.NDBC:BDVF1:1,2016-05-06T17:00:00Z,25.4780,-80.9890,1.0,27.33,2 
ENP,ioos.station.NOAA.NDBC:BDVF1:1,2016-05-06T18:00:00Z,25.4780,-80.9890,1.0,27.55,2 
ENP,ioos.station.NOAA.NDBC:BDVF1:1,2016-05-06T19:00:00Z,25.4780,-80.9890,1.0,27.79,2 
ENP,ioos.station.NOAA.NDBC:BDVF1:1,2016-05-06T20:00:00Z,25.4780,-80.9890,1.0,27.82,2 
ENP,ioos.station.NOAA.NDBC:BDVF1:1,2016-05-06T21:00:00Z,25.4780,-80.9890,1.0,27.94,2 
ENP,ioos.station.NOAA.NDBC:BDVF1:1,2016-05-06T22:00:00Z,25.4780,-80.9890,1.0,27.82,2 
ENP,ioos.station.NOAA.NDBC:BDVF1:1,2016-05-06T23:00:00Z,25.4780,-80.9890,1.0,27.59,2 
ENP,ioos.station.NOAA.NDBC:BDVF1:1,2016-05-07T00:00:00Z,25.4780,-80.9890,1.0,27.45,2 
ENP,ioos.station.NOAA.NDBC:BDVF1:1,2016-05-07T01:00:00Z,25.4780,-80.9890,1.0,27.98,2 
ENP,ioos.station.NOAA.NDBC:BDVF1:1,2016-05-07T04:00:00Z,25.4780,-80.9890,1.0,28.16,2 
ENP,ioos.station.NOAA.NDBC:BDVF1:1,2016-05-07T05:00:00Z,25.4780,-80.9890,1.0,28.06,2 
ENP,ioos.station.NOAA.NDBC:BDVF1:1,2016-05-07T07:00:00Z,25.4780,-80.9890,1.0,28.09,2 
ENP,ioos.station.NOAA.NDBC:BDVF1:1,2016-05-07T08:00:00Z,25.4780,-80.9890,1.0,27.67,2 
ENP,ioos.station.NOAA.NDBC:BDVF1:1,2016-05-07T09:00:00Z,25.4780,-80.9890,1.0,27.14,2 
ENP,ioos.station.NOAA.NDBC:BDVF1:1,2016-05-07T10:00:00Z,25.4780,-80.9890,1.0,26.61,2 
ENP,ioos.station.NOAA.NDBC:BDVF1:1,2016-05-07T11:00:00Z,25.4780,-80.9890,1.0,26.25,2 
ENP,ioos.station.NOAA.NDBC:BDVF1:1,2016-05-07T12:00:00Z,25.4780,-80.9890,1.0,26.03,2 
ENP,ioos.station.NOAA.NDBC:BDVF1:1,2016-05-07T13:00:00Z,25.4780,-80.9890,1.0,26.09,2 
ENP,ioos.station.NOAA.NDBC:BDVF1:1,2016-05-07T14:00:00Z,25.4780,-80.9890,1.0,26.3,2 
ENP,ioos.station.NOAA.NDBC:BDVF1:1,2016-05-07T15:00:00Z,25.4780,-80.9890,1.0,26.56,2 
ENP,ioos.station.NOAA.NDBC:BDVF1:1,2016-05-07T16:00:00Z,25.4780,-80.9890,1.0,26.34,2 
ENP,ioos.station.NOAA.NDBC:BDVF1:1,2016-05-07T17:00:00Z,25.4780,-80.9890,1.0,26.42,2 
ENP,ioos.station.NOAA.NDBC:BDVF1:1,2016-05-07T18:00:00Z,25.4780,-80.9890,1.0,26.71,2 
ENP,ioos.station.NOAA.NDBC:BDVF1:1,2016-05-07T19:00:00Z,25.4780,-80.9890,1.0,26.93,2 
ENP,ioos.station.NOAA.NDBC:BDVF1:1,2016-05-07T20:00:00Z,25.4780,-80.9890,1.0,26.95,2 
ENP,ioos.station.NOAA.NDBC:BDVF1:1,2016-05-07T21:00:00Z,25.4780,-80.9890,1.0,26.91,2 
ENP,ioos.station.NOAA.NDBC:BDVF1:1,2016-05-07T22:00:00Z,25.4780,-80.9890,1.0,26.71,2 
ENP,ioos.station.NOAA.NDBC:BDVF1:1,2016-05-07T23:00:00Z,25.4780,-80.9890,1.0,26.59,2 
ENP,ioos.station.NOAA.NDBC:BDVF1:1,2016-05-08T00:00:00Z,25.4780,-80.9890,1.0,26.55,2 
ENP,ioos.station.NOAA.NDBC:BDVF1:1,2016-05-08T01:00:00Z,25.4780,-80.9890,1.0,26.87,2 
ENP,ioos.station.NOAA.NDBC:BDVF1:1,2016-05-08T04:00:00Z,25.4780,-80.9890,1.0,26.85,2 
ENP,ioos.station.NOAA.NDBC:BDVF1:1,2016-05-08T07:00:00Z,25.4780,-80.9890,1.0,26.91,2 
ENP,ioos.station.NOAA.NDBC:BDVF1:1,2016-05-08T08:00:00Z,25.4780,-80.9890,1.0,26.91,2 
ENP,ioos.station.NOAA.NDBC:BDVF1:1,2016-05-08T09:00:00Z,25.4780,-80.9890,1.0,26.87,2 
ENP,ioos.station.NOAA.NDBC:BDVF1:1,2016-05-08T11:00:00Z,25.4780,-80.9890,1.0,26.58,2 
ENP,ioos.station.NOAA.NDBC:BDVF1:1,2016-05-08T12:00:00Z,25.4780,-80.9890,1.0,26.58,2 
ENP,ioos.station.NOAA.NDBC:BDVF1:1,2016-05-08T13:00:00Z,25.4780,-80.9890,1.0,26.72,2 
ENP,ioos.station.NOAA.NDBC:BDVF1:1,2016-05-08T14:00:00Z,25.4780,-80.9890,1.0,26.73,2 
ENP,ioos.station.NOAA.NDBC:BDVF1:1,2016-05-08T15:00:00Z,25.4780,-80.9890,1.0,26.72,2 
ENP,ioos.station.NOAA.NDBC:BDVF1:1,2016-05-08T16:00:00Z,25.4780,-80.9890,1.0,26.78,2 
ENP,ioos.station.NOAA.NDBC:BDVF1:1,2016-05-08T17:00:00Z,25.4780,-80.9890,1.0,26.93,2 
ENP,ioos.station.NOAA.NDBC:BDVF1:1,2016-05-08T18:00:00Z,25.4780,-80.9890,1.0,26.83,2 
ENP,ioos.station.NOAA.NDBC:BDVF1:1,2016-05-08T19:00:00Z,25.4780,-80.9890,1.0,26.25,2 
ENP,ioos.station.NOAA.NDBC:BDVF1:1,2016-05-08T20:00:00Z,25.4780,-80.9890,1.0,26.66,2 
ENP,ioos.station.NOAA.NDBC:BDVF1:1,2016-05-08T21:00:00Z,25.4780,-80.9890,1.0,26.48,2 
ENP,ioos.station.NOAA.NDBC:BDVF1:1,2016-05-08T22:00:00Z,25.4780,-80.9890,1.0,26.42,2 
ENP,ioos.station.NOAA.NDBC:BDVF1:1,2016-05-08T23:00:00Z,25.4780,-80.9890,1.0,26.42,2 
ENP,ioos.station.NOAA.NDBC:BDVF1:1,2016-05-09T00:00:00Z,25.4780,-80.9890,1.0,26.51,2 
ENP,ioos.station.NOAA.NDBC:BDVF1:1,2016-05-09T01:00:00Z,25.4780,-80.9890,1.0,26.66,2 
ENP,ioos.station.NOAA.NDBC:BDVF1:1,2016-05-09T04:00:00Z,25.4780,-80.9890,1.0,27.01,2 
ENP,ioos.station.NOAA.NDBC:BDVF1:1,2016-05-09T05:00:00Z,25.4780,-80.9890,1.0,27.06,2 
ENP,ioos.station.NOAA.NDBC:BDVF1:1,2016-05-09T08:00:00Z,25.4780,-80.9890,1.0,26.98,2 
ENP,ioos.station.NOAA.NDBC:BDVF1:1,2016-05-09T09:00:00Z,25.4780,-80.9890,1.0,26.9,2 
ENP,ioos.station.NOAA.NDBC:BDVF1:1,2016-05-09T10:00:00Z,25.4780,-80.9890,1.0,26.38,2 
ENP,ioos.station.NOAA.NDBC:BDVF1:1,2016-05-09T11:00:00Z,25.4780,-80.9890,1.0,26.47,2 
ENP,ioos.station.NOAA.NDBC:BDVF1:1,2016-05-09T12:00:00Z,25.4780,-80.9890,1.0,26.51,2 
ENP,ioos.station.NOAA.NDBC:BDVF1:1,2016-05-09T13:00:00Z,25.4780,-80.9890,1.0,26.55,2 
ENP,ioos.station.NOAA.NDBC:BDVF1:1,2016-05-09T14:00:00Z,25.4780,-80.9890,1.0,26.43,2 
ENP,ioos.station.NOAA.NDBC:BDVF1:1,2016-05-09T15:00:00Z,25.4780,-80.9890,1.0,26.3,2 
ENP,ioos.station.NOAA.NDBC:BDVF1:1,2016-05-09T16:00:00Z,25.4780,-80.9890,1.0,26.37,2 
ENP,ioos.station.NOAA.NDBC:BDVF1:1,2016-05-09T17:00:00Z,25.4780,-80.9890,1.0,26.45,2 
ENP,ioos.station.NOAA.NDBC:BDVF1:1,2016-05-09T18:00:00Z,25.4780,-80.9890,1.0,26.43,2 
ENP,ioos.station.NOAA.NDBC:BDVF1:1,2016-05-09T19:00:00Z,25.4780,-80.9890,1.0,25.86,2 
ENP,ioos.station.NOAA.NDBC:BDVF1:1,2016-05-09T20:00:00Z,25.4780,-80.9890,1.0,26.0,2 
ENP,ioos.station.NOAA.NDBC:BDVF1:1,2016-05-09T21:00:00Z,25.4780,-80.9890,1.0,26.2,2 
ENP,ioos.station.NOAA.NDBC:BDVF1:1,2016-05-09T22:00:00Z,25.4780,-80.9890,1.0,26.3,2 
ENP,ioos.station.NOAA.NDBC:BDVF1:1,2016-05-09T23:00:00Z,25.4780,-80.9890,1.0,26.41,2 
ENP,ioos.station.NOAA.NDBC:BDVF1:1,2016-05-10T00:00:00Z,25.4780,-80.9890,1.0,26.42,2 
ENP,ioos.station.NOAA.NDBC:BDVF1:1,2016-05-10T01:00:00Z,25.4780,-80.9890,1.0,26.43,2 
ENP,ioos.station.NOAA.NDBC:BDVF1:1,2016-05-10T04:00:00Z,25.4780,-80.9890,1.0,26.21,2 
ENP,ioos.station.NOAA.NDBC:BDVF1:1,2016-05-10T07:00:00Z,25.4780,-80.9890,1.0,26.28,2 
ENP,ioos.station.NOAA.NDBC:BDVF1:1,2016-05-10T08:00:00Z,25.4780,-80.9890,1.0,26.41,2 
ENP,ioos.station.NOAA.NDBC:BDVF1:1,2016-05-10T09:00:00Z,25.4780,-80.9890,1.0,26.3,2 
ENP,ioos.station.NOAA.NDBC:BDVF1:1,2016-05-10T11:00:00Z,25.4780,-80.9890,1.0,25.87,2 
ENP,ioos.station.NOAA.NDBC:BDVF1:1,2016-05-10T12:00:00Z,25.4780,-80.9890,1.0,25.66,2 
ENP,ioos.station.NOAA.NDBC:BDVF1:1,2016-05-10T13:00:00Z,25.4780,-80.9890,1.0,25.53,2 
ENP,ioos.station.NOAA.NDBC:BDVF1:1,2016-05-10T14:00:00Z,25.4780,-80.9890,1.0,25.45,2 
ENP,ioos.station.NOAA.NDBC:BDVF1:1,2016-05-10T15:00:00Z,25.4780,-80.9890,1.0,25.41,2 
ENP,ioos.station.NOAA.NDBC:BDVF1:1,2016-05-10T16:00:00Z,25.4780,-80.9890,1.0,25.39,2 
ENP,ioos.station.NOAA.NDBC:BDVF1:1,2016-05-10T17:00:00Z,25.4780,-80.9890,1.0,25.53,2 
ENP,ioos.station.NOAA.NDBC:BDVF1:1,2016-05-10T18:00:00Z,25.4780,-80.9890,1.0,25.69,2 
ENP,ioos.station.NOAA.NDBC:BDVF1:1,2016-05-10T19:00:00Z,25.4780,-80.9890,1.0,25.91,2 
ENP,ioos.station.NOAA.NDBC:BDVF1:1,2016-05-10T20:00:00Z,25.4780,-80.9890,1.0,26.2,2 
ENP,ioos.station.NOAA.NDBC:BDVF1:1,2016-05-10T21:00:00Z,25.4780,-80.9890,1.0,26.46,2 
ENP,ioos.station.NOAA.NDBC:BDVF1:1,2016-05-10T22:00:00Z,25.4780,-80.9890,1.0,26.59,2 
ENP,ioos.station.NOAA.NDBC:BDVF1:1,2016-05-10T23:00:00Z,25.4780,-80.9890,1.0,26.82,2 
ENP,ioos.station.NOAA.NDBC:BDVF1:1,2016-05-11T00:00:00Z,25.4780,-80.9890,1.0,26.83,2 
ENP,ioos.station.NOAA.NDBC:BDVF1:1,2016-05-11T01:00:00Z,25.4780,-80.9890,1.0,26.89,2 
ENP,ioos.station.NOAA.NDBC:BDVF1:1,2016-05-11T04:00:00Z,25.4780,-80.9890,1.0,26.82,2 
ENP,ioos.station.NOAA.NDBC:BDVF1:1,2016-05-11T05:00:00Z,25.4780,-80.9890,1.0,26.85,2 
ENP,ioos.station.NOAA.NDBC:BDVF1:1,2016-05-11T07:00:00Z,25.4780,-80.9890,1.0,26.67,2 
ENP,ioos.station.NOAA.NDBC:BDVF1:1,2016-05-11T08:00:00Z,25.4780,-80.9890,1.0,26.67,2 
ENP,ioos.station.NOAA.NDBC:BDVF1:1,2016-05-11T09:00:00Z,25.4780,-80.9890,1.0,26.51,2 
ENP,ioos.station.NOAA.NDBC:BDVF1:1,2016-05-11T10:00:00Z,25.4780,-80.9890,1.0,26.47,2 
ENP,ioos.station.NOAA.NDBC:BDVF1:1,2016-05-11T11:00:00Z,25.4780,-80.9890,1.0,26.22,2 
ENP,ioos.station.NOAA.NDBC:BDVF1:1,2016-05-11T12:00:00Z,25.4780,-80.9890,1.0,26.09,2 
ENP,ioos.station.NOAA.NDBC:BDVF1:1,2016-05-11T13:00:00Z,25.4780,-80.9890,1.0,26.09,2 
ENP,ioos.station.NOAA.NDBC:BDVF1:1,2016-05-11T16:00:00Z,25.4780,-80.9890,1.0,26.23,2 
ENP,ioos.station.NOAA.NDBC:BDVF1:1,2016-05-11T17:00:00Z,25.4780,-80.9890,1.0,26.33,2 
ENP,ioos.station.NOAA.NDBC:BDVF1:1,2016-05-11T20:00:00Z,25.4780,-80.9890,1.0,26.58,2 
ENP,ioos.station.NOAA.NDBC:BDVF1:1,2016-05-11T21:00:00Z,25.4780,-80.9890,1.0,26.68,2 
ENP,ioos.station.NOAA.NDBC:BDVF1:1,2016-05-11T22:00:00Z,25.4780,-80.9890,1.0,26.8,2 
ENP,ioos.station.NOAA.NDBC:BDVF1:1,2016-05-11T23:00:00Z,25.4780,-80.9890,1.0,26.94,2 
ENP,ioos.station.NOAA.NDBC:BDVF1:1,2016-05-12T00:00:00Z,25.4780,-80.9890,1.0,27.17,2 
ENP,ioos.station.NOAA.NDBC:BDVF1:1,2016-05-12T01:00:00Z,25.4780,-80.9890,1.0,27.2,2 
ENP,ioos.station.NOAA.NDBC:BDVF1:1,2016-05-12T04:00:00Z,25.4780,-80.9890,1.0,26.86,2 
ENP,ioos.station.NOAA.NDBC:BDVF1:1,2016-05-12T07:00:00Z,25.4780,-80.9890,1.0,26.87,2 
ENP,ioos.station.NOAA.NDBC:BDVF1:1,2016-05-12T08:00:00Z,25.4780,-80.9890,1.0,26.87,2 
ENP,ioos.station.NOAA.NDBC:BDVF1:1,2016-05-12T09:00:00Z,25.4780,-80.9890,1.0,26.86,2 
ENP,ioos.station.NOAA.NDBC:BDVF1:1,2016-05-12T11:00:00Z,25.4780,-80.9890,1.0,26.76,2 
ENP,ioos.station.NOAA.NDBC:BDVF1:1,2016-05-12T12:00:00Z,25.4780,-80.9890,1.0,26.66,2 
ENP,ioos.station.NOAA.NDBC:BDVF1:1,2016-05-12T13:00:00Z,25.4780,-80.9890,1.0,26.52,2 
ENP,ioos.station.NOAA.NDBC:BDVF1:1,2016-05-12T14:00:00Z,25.4780,-80.9890,1.0,26.42,2 
ENP,ioos.station.NOAA.NDBC:BDVF1:1,2016-05-12T15:00:00Z,25.4780,-80.9890,1.0,26.35,2 
ENP,ioos.station.NOAA.NDBC:BDVF1:1,2016-05-12T16:00:00Z,25.4780,-80.9890,1.0,26.61,2 
ENP,ioos.station.NOAA.NDBC:BDVF1:1,2016-05-12T17:00:00Z,25.4780,-80.9890,1.0,26.76,2 
ENP,ioos.station.NOAA.NDBC:BDVF1:1,2016-05-12T18:00:00Z,25.4780,-80.9890,1.0,26.81,2 
ENP,ioos.station.NOAA.NDBC:BDVF1:1,2016-05-12T19:00:00Z,25.4780,-80.9890,1.0,26.91,2 
ENP,ioos.station.NOAA.NDBC:BDVF1:1,2016-05-12T21:00:00Z,25.4780,-80.9890,1.0,27.21,2 
ENP,ioos.station.NOAA.NDBC:BDVF1:1,2016-05-12T22:00:00Z,25.4780,-80.9890,1.0,27.29,2 
ENP,ioos.station.NOAA.NDBC:BDVF1:1,2016-05-12T23:00:00Z,25.4780,-80.9890,1.0,27.32,2 
ENP,ioos.station.NOAA.NDBC:BDVF1:1,2016-05-13T00:00:00Z,25.4780,-80.9890,1.0,27.35,2 
ENP,ioos.station.NOAA.NDBC:BDVF1:1,2016-05-13T01:00:00Z,25.4780,-80.9890,1.0,27.35,2 
ENP,ioos.station.NOAA.NDBC:BDVF1:1,2016-05-13T04:00:00Z,25.4780,-80.9890,1.0,27.29,2 
ENP,ioos.station.NOAA.NDBC:BDVF1:1,2016-05-13T06:00:00Z,25.4780,-80.9890,1.0,27.31,2 
ENP,ioos.station.NOAA.NDBC:BDVF1:1,2016-05-13T07:00:00Z,25.4780,-80.9890,1.0,27.33,2 
ENP,ioos.station.NOAA.NDBC:BDVF1:1,2016-05-13T08:00:00Z,25.4780,-80.9890,1.0,27.33,2 
ENP,ioos.station.NOAA.NDBC:BDVF1:1,2016-05-13T09:00:00Z,25.4780,-80.9890,1.0,27.39,2 
ENP,ioos.station.NOAA.NDBC:BDVF1:1,2016-05-13T11:00:00Z,25.4780,-80.9890,1.0,27.45,2 
ENP,ioos.station.NOAA.NDBC:BDVF1:1,2016-05-13T12:00:00Z,25.4780,-80.9890,1.0,27.39,2 
ENP,ioos.station.NOAA.NDBC:BDVF1:1,2016-05-13T13:00:00Z,25.4780,-80.9890,1.0,27.31,2 
ENP,ioos.station.NOAA.NDBC:BDVF1:1,2016-05-13T14:00:00Z,25.4780,-80.9890,1.0,27.21,2 
ENP,ioos.station.NOAA.NDBC:BDVF1:1,2016-05-13T15:00:00Z,25.4780,-80.9890,1.0,27.15,2 
ENP,ioos.station.NOAA.NDBC:BDVF1:1,2016-05-13T16:00:00Z,25.4780,-80.9890,1.0,27.27,2 
ENP,ioos.station.NOAA.NDBC:BDVF1:1,2016-05-13T18:00:00Z,25.4780,-80.9890,1.0,27.49,2 
ENP,ioos.station.NOAA.NDBC:BDVF1:1,2016-05-13T19:00:00Z,25.4780,-80.9890,1.0,27.57,2 
ENP,ioos.station.NOAA.NDBC:BDVF1:1,2016-05-13T20:00:00Z,25.4780,-80.9890,1.0,27.68,2 
ENP,ioos.station.NOAA.NDBC:BDVF1:1,2016-05-13T21:00:00Z,25.4780,-80.9890,1.0,27.77,2 
ENP,ioos.station.NOAA.NDBC:BDVF1:1,2016-05-13T22:00:00Z,25.4780,-80.9890,1.0,27.81,2 
ENP,ioos.station.NOAA.NDBC:BDVF1:1,2016-05-13T23:00:00Z,25.4780,-80.9890,1.0,27.9,2 
ENP,ioos.station.NOAA.NDBC:BDVF1:1,2016-05-14T00:00:00Z,25.4780,-80.9890,1.0,27.93,2 
ENP,ioos.station.NOAA.NDBC:BDVF1:1,2016-05-14T01:00:00Z,25.4780,-80.9890,1.0,27.97,2 
ENP,ioos.station.NOAA.NDBC:BDVF1:1,2016-05-14T04:00:00Z,25.4780,-80.9890,1.0,28.15,2 
ENP,ioos.station.NOAA.NDBC:BDVF1:1,2016-05-14T07:00:00Z,25.4780,-80.9890,1.0,27.99,2 
ENP,ioos.station.NOAA.NDBC:BDVF1:1,2016-05-14T08:00:00Z,25.4780,-80.9890,1.0,27.97,2 
ENP,ioos.station.NOAA.NDBC:BDVF1:1,2016-05-14T09:00:00Z,25.4780,-80.9890,1.0,27.97,2 
ENP,ioos.station.NOAA.NDBC:BDVF1:1,2016-05-14T11:00:00Z,25.4780,-80.9890,1.0,28.01,2 
ENP,ioos.station.NOAA.NDBC:BDVF1:1,2016-05-14T12:00:00Z,25.4780,-80.9890,1.0,28.03,2 
ENP,ioos.station.NOAA.NDBC:BDVF1:1,2016-05-14T13:00:00Z,25.4780,-80.9890,1.0,28.05,2 
ENP,ioos.station.NOAA.NDBC:BDVF1:1,2016-05-14T14:00:00Z,25.4780,-80.9890,1.0,27.96,2 
ENP,ioos.station.NOAA.NDBC:BDVF1:1,2016-05-14T15:00:00Z,25.4780,-80.9890,1.0,27.91,2 
ENP,ioos.station.NOAA.NDBC:BDVF1:1,2016-05-14T16:00:00Z,25.4780,-80.9890,1.0,28.04,2 
ENP,ioos.station.NOAA.NDBC:BDVF1:1,2016-05-14T17:00:00Z,25.4780,-80.9890,1.0,28.36,2 
ENP,ioos.station.NOAA.NDBC:BDVF1:1,2016-05-14T18:00:00Z,25.4780,-80.9890,1.0,28.32,2 
ENP,ioos.station.NOAA.NDBC:BDVF1:1,2016-05-14T19:00:00Z,25.4780,-80.9890,1.0,28.41,2 
ENP,ioos.station.NOAA.NDBC:BDVF1:1,2016-05-14T20:00:00Z,25.4780,-80.9890,1.0,28.57,2 
ENP,ioos.station.NOAA.NDBC:BDVF1:1,2016-05-14T21:00:00Z,25.4780,-80.9890,1.0,28.83,2 
ENP,ioos.station.NOAA.NDBC:BDVF1:1,2016-05-14T22:00:00Z,25.4780,-80.9890,1.0,29.37,2 
ENP,ioos.station.NOAA.NDBC:BDVF1:1,2016-05-14T23:00:00Z,25.4780,-80.9890,1.0,29.83,2 
ENP,ioos.station.NOAA.NDBC:BDVF1:1,2016-05-15T00:00:00Z,25.4780,-80.9890,1.0,29.85,2 
ENP,ioos.station.NOAA.NDBC:BDVF1:1,2016-05-15T01:00:00Z,25.4780,-80.9890,1.0,29.76,2 
ENP,ioos.station.NOAA.NDBC:BDVF1:1,2016-05-15T04:00:00Z,25.4780,-80.9890,1.0,29.38,2 
ENP,ioos.station.NOAA.NDBC:BDVF1:1,2016-05-15T07:00:00Z,25.4780,-80.9890,1.0,29.14,2 
ENP,ioos.station.NOAA.NDBC:BDVF1:1,2016-05-15T08:00:00Z,25.4780,-80.9890,1.0,29.14,2 
ENP,ioos.station.NOAA.NDBC:BDVF1:1,2016-05-15T09:00:00Z,25.4780,-80.9890,1.0,29.12,2 
ENP,ioos.station.NOAA.NDBC:BDVF1:1,2016-05-15T11:00:00Z,25.4780,-80.9890,1.0,28.9,2 